Minneapolis, MN

9:29 AM CST on December 07, 2016 (GMT -0600)
Crystal

Weather History for KMIC - November, 2013

Change the Weather History Date:

Saturday, November 23, 2013

  Actual Average Record
Temperature  
Mean Temperature 12 °F -  
Max Temperature 18 °F 37 °F 54 °F (2006)
Min Temperature 6 °F 23 °F 3 °F (1997)
Degree Days  
Heating Degree Days 53    
Moisture  
Dew Point 0 °F    
Average Humidity 61    
Maximum Humidity 77    
Minimum Humidity 39    
Precipitation  
Precipitation 0.00 in - - ()
Sea Level Pressure  
Sea Level Pressure 30.79 in    
Wind  
Wind Speed 11 mph (NW)    
Max Wind Speed 15 mph    
Max Gust Speed 23 mph    
Visibility 10 miles    
Events      
Averages and records for this station are not official NWS values.
T = Trace of Precipitation, MM = Missing Value Source: NWS Daily Summary

Daily Weather History Graph

Daily Weather History Graph

Search for Another Location

Airport or City:

Trip Planner

Search our weather history database for the weather conditions in past years. The results will help you decide how hot, cold, wet, or windy it might be!

Date:

Astronomy

Nov. 23, 2013 Rise Set
Actual Time 7:22 AM CST 4:37 PM CST
Civil Twilight 6:49 AM CST 5:09 PM CST
Nautical Twilight 6:13 AM CST 5:46 PM CST
Astronomical Twilight 5:38 AM CST 6:21 PM CST
Moon 10:12 PM CST (11/23) 11:34 AM CST (11/23)
Length of Visible Light 10h 20m
Length of Day
9h 15m
Waning Gibbous, 69% of the Moon is Illuminated
Nov 23
Waning Gibbous
Nov 25
Last Quarter
Dec 2
New
Dec 9
First Quarter
Dec 17
Full

Hourly Weather History & Observations

Time (CST) Temp. Windchill Dew Point Humidity Pressure Visibility Wind Dir Wind Speed Gust Speed Precip Events Conditions
12:23 AM 12.2 °F -3.7 °F 1.4 °F 62% 30.63 in 10.0 mi NW 15.0 mph 23.0 mph N/A   Overcast
12:53 AM 10.9 °F -5.4 °F 1.0 °F 64% 30.69 in 10.0 mi NW 15.0 mph 21.9 mph N/A   Overcast
1:53 AM 9.0 °F -5.1 °F -0.0 °F 67% 30.71 in 10.0 mi NW 10.4 mph 19.6 mph N/A   Clear
2:53 AM 9.0 °F -7.3 °F -0.0 °F 67% 30.74 in 10.0 mi NNW 13.8 mph - N/A   Clear
3:53 AM 8.1 °F -6.2 °F -0.0 °F 70% 30.75 in 10.0 mi NNW 10.4 mph - N/A   Clear
4:53 AM 7.0 °F -7.5 °F -0.0 °F 73% 30.77 in 10.0 mi NNW 10.4 mph - N/A   Clear
5:53 AM 7.0 °F -5.7 °F -0.0 °F 73% 30.79 in 10.0 mi NW 8.1 mph - N/A   Clear
6:53 AM 6.1 °F -7.8 °F -0.0 °F 76% 30.82 in 10.0 mi WNW 9.2 mph - N/A   Clear
7:53 AM 7.0 °F -7.5 °F 1.0 °F 77% 30.85 in 10.0 mi WNW 10.4 mph - N/A   Clear
8:53 AM 9.0 °F -7.3 °F 1.0 °F 70% 30.87 in 10.0 mi NW 13.8 mph - N/A   Clear
9:53 AM 10.9 °F -1.8 °F 1.9 °F 67% 30.88 in 10.0 mi NW 9.2 mph - N/A   Clear
10:49 AM 12.2 °F -1.0 °F 3.2 °F 67% 30.82 in 10.0 mi WNW 10.4 mph - N/A   Mostly Cloudy
10:53 AM 12.9 °F 1.6 °F 1.9 °F 62% 30.88 in 10.0 mi NW 8.1 mph - N/A   Mostly Cloudy
11:26 AM 14.0 °F 0.5 °F 1.4 °F 57% 30.81 in 10.0 mi NW 11.5 mph - N/A   Partly Cloudy
11:53 AM 16.0 °F 2.9 °F 1.0 °F 52% 30.85 in 10.0 mi NNW 11.5 mph - N/A   Clear
12:53 PM 17.1 °F 3.6 °F -0.0 °F 47% 30.84 in 10.0 mi NNW 12.7 mph - N/A   Clear
1:53 PM 18.0 °F 4.8 °F -2.0 °F 41% 30.83 in 10.0 mi NW 12.7 mph - N/A   Clear
2:53 PM 18.0 °F 5.4 °F -2.9 °F 40% 30.82 in 10.0 mi WNW 11.5 mph 17.3 mph N/A   Clear
3:53 PM 17.1 °F 6.6 °F -4.0 °F 39% 30.82 in 10.0 mi WNW 8.1 mph - N/A   Clear
4:53 PM 15.1 °F 5.2 °F -4.0 °F 43% 30.81 in 10.0 mi WNW 6.9 mph - N/A   Clear
5:53 PM 12.9 °F 5.2 °F -2.9 °F 49% 30.80 in 10.0 mi WNW 4.6 mph - N/A   Clear
6:53 PM 12.0 °F 4.1 °F -2.0 °F 53% 30.81 in 10.0 mi West 4.6 mph - N/A   Clear
7:53 PM 12.0 °F 1.5 °F 1.0 °F 61% 30.80 in 10.0 mi West 6.9 mph - N/A   Clear
8:53 PM 10.0 °F 1.8 °F 1.0 °F 67% 30.79 in 10.0 mi West 4.6 mph - N/A   Clear
9:53 PM 9.0 °F - 1.0 °F 70% 30.78 in 10.0 mi Calm Calm - N/A   Clear
10:53 PM 9.0 °F 2.4 °F 1.0 °F 70% 30.76 in 10.0 mi WSW 3.5 mph - N/A   Clear
11:53 PM 8.1 °F - 1.0 °F 73% 30.74 in 10.0 mi Calm Calm - N/A   Clear